Spokane, WA

5:52 AM PDT on March 30, 2017 (GMT -0700)
Spokane International

Weather History for KGEG - June, 2014

Change the Weather History Date:

Wednesday, June 25, 2014

  Actual Average Record
Temperature  
Mean Temperature 64 °F 64 °F  
Max Temperature 78 °F 76 °F 98 °F (1926)
Min Temperature 50 °F 52 °F 37 °F (1976)
Degree Days  
Heating Degree Days 1 3  
Month to date heating degree days 90 122  
Since 1 June heating degree days 90 122  
Since 1 July heating degree days 6677 6579  
Cooling Degree Days 0 2  
Month to date cooling degree days 14 34  
Year to date cooling degree days 20 48  
Since 1 June cooling degree days 14 34  
Growing Degree Days 14 (Base 50)    
Moisture  
Dew Point 44 °F    
Average Humidity 54    
Maximum Humidity 83    
Minimum Humidity 24    
Precipitation  
Precipitation 0.00 in 0.03 in 0.85 in (1999)
Month to date precipitation 1.19 1.11  
Year to date precipitation 8.59 8.74  
Snow  
Snow 0.00 in 0.00 in 0.00 in (2002)
Month to date snowfall 0.0 0.0  
Since 1 June snowfall 0.0 0.0  
Since 1 July snowfall 37.6 44.9  
Snow Depth 0.00 in    
Sea Level Pressure  
Sea Level Pressure 29.88 in    
Wind  
Wind Speed 3 mph (ENE)    
Max Wind Speed 10 mph    
Max Gust Speed 15 mph    
Visibility 10 miles    
Events      
T = Trace of Precipitation, MM = Missing Value Source: NWS Daily Summary

Daily Weather History Graph

Daily Weather History Graph

Search for Another Location

Airport or City:

Trip Planner

Search our weather history database for the weather conditions in past years. The results will help you decide how hot, cold, wet, or windy it might be!

Date:

Astronomy

Jun. 25, 2014 Rise Set
Actual Time 4:53 AM PDT 8:52 PM PDT
Civil Twilight 4:12 AM PDT 9:32 PM PDT
Nautical Twilight 3:16 AM PDT 10:28 PM PDT
Astronomical Twilight 1:45 AM PDT 11:59 PM PDT
Moon 3:55 AM PDT (6/25) 7:21 PM PDT (6/25)
Length of Visible Light 17h 19m
Length of Day
15h 58m
Waning Crescent, 2% of the Moon is Illuminated
Jun 25
Waning Crescent
Jun 27
New
Jul 5
First Quarter
Jul 12
Full
Jul 18
Last Quarter

Hourly Weather History & Observations

Time (PDT) Temp. Dew Point Humidity Pressure Visibility Wind Dir Wind Speed Gust Speed Precip Events Conditions
12:53 AM 57.9 °F 46.9 °F 67% 29.97 in 10.0 mi SSW 3.5 mph - N/A   Partly Cloudy
1:53 AM 55.9 °F 48.0 °F 75% 29.97 in 10.0 mi SSW 3.5 mph - N/A   Partly Cloudy
2:53 AM 51.1 °F 45.0 °F 80% 29.98 in 10.0 mi WSW 4.6 mph - N/A   Scattered Clouds
3:53 AM 52.0 °F 46.0 °F 80% 29.96 in 10.0 mi SW 3.5 mph - N/A   Scattered Clouds
4:53 AM 51.1 °F 45.0 °F 80% 29.97 in 10.0 mi Calm Calm - N/A   Mostly Cloudy
5:53 AM 54.0 °F 48.9 °F 83% 29.97 in 10.0 mi ENE 4.6 mph - N/A   Scattered Clouds
6:53 AM 55.9 °F 50.0 °F 80% 29.97 in 10.0 mi Calm Calm - N/A   Mostly Cloudy
7:53 AM 61.0 °F 50.0 °F 67% 29.96 in 10.0 mi NE 3.5 mph - N/A   Mostly Cloudy
8:53 AM 64.9 °F 50.0 °F 58% 29.95 in 10.0 mi East 4.6 mph - N/A   Mostly Cloudy
9:53 AM 69.1 °F 48.0 °F 47% 29.94 in 10.0 mi Variable 3.5 mph - N/A   Mostly Cloudy
10:53 AM 71.1 °F 45.0 °F 39% 29.93 in 10.0 mi East 5.8 mph - N/A   Mostly Cloudy
11:53 AM 73.9 °F 41.0 °F 30% 29.91 in 10.0 mi East 4.6 mph - N/A   Mostly Cloudy
12:53 PM 71.6 °F 39.2 °F 31% 29.93 in 10.0 mi Variable 3.5 mph - N/A   Mostly Cloudy
1:53 PM 73.9 °F 39.9 °F 29% 29.89 in 10.0 mi West 6.9 mph - N/A   Mostly Cloudy
2:53 PM 75.0 °F 37.0 °F 25% 29.88 in 10.0 mi Calm Calm - N/A   Mostly Cloudy
3:53 PM 77.0 °F 39.0 °F 25% 29.85 in 10.0 mi NNE 3.5 mph - N/A   Mostly Cloudy
4:53 PM 77.0 °F 37.9 °F 24% 29.82 in 10.0 mi NNE 10.4 mph - N/A   Mostly Cloudy
5:53 PM 68.0 °F 48.2 °F 49% 29.83 in - North - - N/A   Unknown
6:53 PM 75.2 °F 37.4 °F 25% 29.82 in 10.0 mi NNE 4.6 mph - N/A   Overcast
7:53 PM 73.9 °F 37.0 °F 26% 29.77 in 10.0 mi NNE 6.9 mph - N/A   Overcast
8:53 PM 73.0 °F 37.0 °F 27% 29.76 in 10.0 mi ENE 4.6 mph - N/A   Mostly Cloudy
9:53 PM 71.1 °F 42.1 °F 35% 29.75 in 10.0 mi South 3.5 mph - N/A   Mostly Cloudy
10:53 PM 66.9 °F 45.0 °F 45% 29.74 in 10.0 mi Calm Calm - N/A   Mostly Cloudy
11:53 PM 66.0 °F 45.0 °F 47% 29.74 in 10.0 mi Calm Calm - N/A   Overcast